Location: Almena City Lake
(39.8850°N, 99.6804°W)
Time: 15:25:04
(UTC+00:00)

BREEZE-M DEB (TANK) - Pass Details

Date: 18 February 2020
Orbit: 322 x 16738 km, 49.4° (Epoch: 07 April)

Event Time Altitude Azimuth Distance (km) Brightness Sun altitude
Rises 02:20:35 0° 304° (WNW) 5,731 9.0 -24.4°
Reaches altitude 10° 02:26:05 10° 297° (WNW) 3,200 7.6 -25.4°
Maximum altitude 02:31:33 33° 234° (SW) 962 4.4 -26.5°
Enters shadow 02:31:52 32° 222° (SW) 932 4.2 -26.5°
